QPF
0.04 0.05 0.05 0.03 0.03 0.03 0.05 0.05 0.06 0.06 0.05 0.04 0.03 0.02 0.03 0.05 0.06 0.05 0.05 0.04 0.03 0.02 0.02 0.01 0.01 0.01 0.01 0.01 0.01 0.01 0.02 0.02 0.03 0.05 0.07 0.09 0.10 0.09
0.04 0.04 0.04 0.03 0.03 0.03 0.05 0.05 0.06 0.07 0.06 0.04 0.03 0.02 0.02 0.02 0.03 0.02 0.03 0.03 0.03 0.02 0.02 0.02 0.02 0.02 0.01 0.02 0.01 0.01 0.01 0.01 0.01 0.03 0.04 0.06 0.09 0.10
0.03 0.04 0.04 0.05 0.06 0.06 0.06 0.06 0.07 0.07 0.06 0.04 0.04 0.03 0.04 0.04 0.04 0.04 0.04 0.04 0.03 0.02 0.02 0.02 0.02 0.03 0.02 0.02 0.02 0.01 0.01 0.01 0.01 0.01 0.02 0.02 0.05 0.08
0.06 0.07 0.06 0.07 0.08 0.08 0.08 0.08 0.08 0.08 0.08 0.06 0.06 0.05 0.05 0.04 0.04 0.04 0.03 0.03 0.03 0.03 0.03 0.02 0.02 0.03 0.03 0.04 0.03 0.03 0.02 0.02 0.01 0.01 0.01 0.02 0.02 0.04
0.06 0.08 0.09 0.08 0.09 0.10 0.09 0.09 0.07 0.06 0.08 0.07 0.06 0.07 0.05 0.04 0.06 0.05 0.03 0.04 0.03 0.03 0.03 0.03 0.03 0.03 0.03 0.04 0.05 0.04 0.03 0.03 0.02 0.01 0.01 0.01 0.01 0.02
0.05 0.06 0.07 0.08 0.08 0.08 0.07 0.08 0.09 0.08 0.09 0.07 0.07 0.06 0.06 0.05 0.07 0.06 0.05 0.05 0.04 0.04 0.05 0.04 0.03 0.02 0.02 0.03 0.03 0.03 0.03 0.02 0.02 0.02 0.01 0.00 0.01 0.01
0.05 0.05 0.07 0.07 0.07 0.07 0.06 0.07 0.09 0.08 0.07 0.06 0.07 0.08 0.06 0.06 0.05 0.05 0.06 0.06 0.05 0.03 0.04 0.03 0.03 0.02 0.01 0.02 0.03 0.04 0.03 0.03 0.03 0.03 0.02 0.01 0.01 0.02
0.06 0.06 0.07 0.07 0.06 0.05 0.05 0.05 0.06 0.06 0.05 0.06 0.08 0.07 0.06 0.05 0.06 0.05 0.05 0.06 0.04 0.03 0.03 0.03 0.03 0.03 0.03 0.02 0.03 0.05 0.05 0.06 0.05 0.05 0.04 0.03 0.03 0.02
0.06 0.07 0.07 0.05 0.04 0.03 0.03 0.03 0.03 0.03 0.02 0.04 0.05 0.05 0.06 0.06 0.07 0.06 0.07 0.06 0.06 0.05 0.06 0.04 0.05 0.05 0.05 0.05 0.07 0.08 0.08 0.07 0.07 0.07 0.07 0.06 0.05 0.05
0.03 0.03 0.04 0.04 0.04 0.04 0.04 0.03 0.03 0.03 0.02 0.02 0.03 0.03 0.04 0.06 0.06 0.05 0.07 0.06 0.05 0.05 0.06 0.05 0.05 0.06 0.06 0.07 0.07 0.07 0.08 0.08 0.07 0.07 0.07 0.06 0.06 0.06
0.04 0.03 0.03 0.03 0.02 0.03 0.03 0.03 0.04 0.03 0.02 0.02 0.02 0.02 0.03 0.03 0.04 0.04 0.05 0.05 0.04 0.04 0.05 0.06 0.07 0.08 0.08 0.06 0.05 0.04 0.05 0.06 0.05 0.05 0.06 0.06 0.06 0.07
0.05 0.04 0.03 0.03 0.02 0.02 0.02 0.02 0.02 0.03 0.04 0.04 0.03 0.02 0.01 0.02 0.02 0.03 0.04 0.04 0.05 0.04 0.05 0.07 0.06 0.07 0.06 0.04 0.03 0.03 0.03 0.05 0.04 0.03 0.03 0.03 0.03 0.03
0.03 0.02 0.02 0.02 0.02 0.02 0.02 0.03 0.02 0.04 0.05 0.05 0.05 0.04 0.03 0.03 0.02 0.03 0.03 0.04 0.05 0.04 0.05 0.06 0.05 0.06 0.07 0.07 0.06 0.04 0.03 0.03 0.03 0.03 0.02 0.02 0.02 0.02
0.02 0.02 0.02 0.02 0.02 0.02 0.01 0.02 0.03 0.04 0.04 0.03 0.03 0.03 0.04 0.04 0.04 0.04 0.05 0.06 0.05 0.04 0.05 0.06 0.06 0.06 0.08 0.09 0.08 0.06 0.04 0.04 0.03 0.02 0.02 0.02 0.01 0.01
0.02 0.02 0.02 0.02 0.02 0.02 0.02 0.02 0.03 0.03 0.03 0.03 0.03 0.04 0.05 0.05 0.04 0.05 0.05 0.06 0.05 0.04 0.05 0.06 0.06 0.06 0.07 0.08 0.08 0.06 0.06 0.04 0.03 0.02 0.02 0.01 0.01 0.01
0.03 0.03 0.03 0.03 0.03 0.02 0.01 0.01 0.01 0.02 0.02 0.03 0.04 0.05 0.04 0.04 0.03 0.03 0.04 0.05 0.06 0.05 0.06 0.09 0.07 0.08 0.08 0.09 0.09 0.07 0.06 0.06 0.05 0.03 0.03 0.02 0.02 0.02
0.04 0.03 0.03 0.04 0.04 0.04 0.03 0.02 0.02 0.02 0.02 0.02 0.03 0.05 0.05 0.04 0.04 0.03 0.04 0.05 0.05 0.03 0.04 0.05 0.06 0.07 0.07 0.08 0.09 0.07 0.06 0.06 0.06 0.06 0.06 0.04 0.03 0.03
0.02 0.03 0.04 0.04 0.05 0.06 0.05 0.04 0.04 0.04 0.04 0.03 0.04 0.05 0.06 0.06 0.06 0.06 0.07 0.07 0.06 0.04 0.04 0.05 0.06 0.06 0.06 0.05 0.07 0.09 0.08 0.06 0.06 0.08 0.08 0.07 0.05 0.04
0.02 0.02 0.02 0.02 0.03 0.05 0.05 0.05 0.04 0.04 0.05 0.05 0.04 0.04 0.05 0.05 0.06 0.06 0.06 0.06 0.05 0.04 0.05 0.07 0.08 0.08 0.08 0.06 0.06 0.07 0.08 0.09 0.09 0.09 0.11 0.12 0.10 0.08
0.03 0.03 0.03 0.03 0.03 0.04 0.05 0.06 0.05 0.05 0.06 0.06 0.05 0.04 0.05 0.05 0.05 0.05 0.05 0.06 0.06 0.06 0.07 0.09 0.10 0.10 0.10 0.09 0.08 0.08 0.08 0.08 0.10 0.10 0.10 0.11 0.12 0.11
0.03 0.04 0.04 0.04 0.04 0.04 0.04 0.06 0.07 0.06 0.07 0.09 0.08 0.07 0.09 0.09 0.08 0.07 0.07 0.07 0.07 0.06 0.06 0.07 0.09 0.10 0.11 0.12 0.12 0.12 0.12 0.12 0.12 0.12 0.12 0.12 0.11 0.11
0.05 0.05 0.05 0.05 0.06 0.07 0.07 0.08 0.09 0.10 0.11 0.11 0.08 0.08 0.09 0.09 0.08 0.07 0.07 0.07 0.07 0.06 0.06 0.07 0.08 0.07 0.08 0.09 0.09 0.10 0.11 0.13 0.12 0.11 0.09 0.09 0.09 0.07
0.06 0.06 0.05 0.05 0.06 0.07 0.09 0.09 0.08 0.08 0.07 0.07 0.07 0.08 0.09 0.09 0.08 0.07 0.06 0.06 0.06 0.05 0.06 0.06 0.06 0.07 0.08 0.09 0.10 0.12 0.13 0.13 0.12 0.12 0.10 0.09 0.07 0.06
MSLP
1005.00 1005.02 1005.09 1005.20 1005.32 1005.43 1005.52 1005.58 1005.62 1005.68 1005.77 1005.90 1006.09 1006.34 1006.65 1006.98 1007.33 1007.67 1007.97 1008.25 1008.47 1008.65 1008.79 1008.91 1008.99 1009.07 1009.13 1009.19 1009.26 1009.35 1009.45 1009.57 1009.72 1009.87 1010.03 1010.19 1010.33 1010.46
1005.50 1005.50 1005.53 1005.57 1005.61 1005.65 1005.67 1005.68 1005.70 1005.74 1005.83 1005.98 1006.20 1006.48 1006.80 1007.15 1007.50 1007.84 1008.13 1008.38 1008.58 1008.74 1008.85 1008.94 1009.00 1009.06 1009.11 1009.16 1009.22 1009.29 1009.37 1009.45 1009.55 1009.64 1009.74 1009.84 1009.93 1010.02
1006.04 1006.02 1006.01 1006.01 1005.99 1005.97 1005.94 1005.92 1005.91 1005.94 1006.03 1006.18 1006.39 1006.66 1006.98 1007.31 1007.63 1007.93 1008.20 1008.41 1008.59 1008.72 1008.82 1008.90 1008.97 1009.03 1009.09 1009.16 1009.23 1009.30 1009.37 1009.43 1009.49 1009.55 1009.61 1009.66 1009.72 1009.79
1006.63 1006.60 1006.56 1006.51 1006.46 1006.39 1006.33 1006.27 1006.24 1006.25 1006.32 1006.45 1006.63 1006.87 1007.13 1007.41 1007.69 1007.93 1008.15 1008.33 1008.47 1008.58 1008.68 1008.77 1008.87 1008.96 1009.06 1009.17 1009.26 1009.35 1009.43 1009.50 1009.55 1009.59 1009.63 1009.67 1009.72 1009.79
1007.23 1007.18 1007.12 1007.05 1006.96 1006.87 1006.78 1006.70 1006.65 1006.64 1006.67 1006.75 1006.89 1007.06 1007.25 1007.46 1007.66 1007.84 1008.00 1008.13 1008.25 1008.36 1008.47 1008.59 1008.72 1008.85 1009.00 1009.15 1009.29 1009.41 1009.52 1009.60 1009.66 1009.72 1009.76 1009.81 1009.88 1009.97
1007.77 1007.70 1007.62 1007.53 1007.44 1007.33 1007.23 1007.14 1007.08 1007.04 1007.03 1007.06 1007.13 1007.23 1007.34 1007.46 1007.58 1007.69 1007.79 1007.89 1007.98 1008.09 1008.22 1008.36 1008.53 1008.71 1008.90 1009.09 1009.27 1009.43 1009.57 1009.69 1009.78 1009.86 1009.94 1010.03 1010.13 1010.25
1008.14 1008.06 1007.98 1007.89 1007.80 1007.71 1007.62 1007.53 1007.45 1007.40 1007.36 1007.34 1007.35 1007.37 1007.40 1007.44 1007.49 1007.53 1007.58 1007.65 1007.73 1007.83 1007.97 1008.13 1008.32 1008.53 1008.75 1008.97 1009.18 1009.37 1009.54 1009.69 1009.83 1009.95 1010.08 1010.21 1010.36 1010.53
1008.28 1008.21 1008.13 1008.07 1008.01 1007.94 1007.87 1007.80 1007.74 1007.67 1007.62 1007.57 1007.52 1007.49 1007.45 1007.43 1007.41 1007.41 1007.42 1007.45 1007.51 1007.61 1007.74 1007.91 1008.10 1008.32 1008.55 1008.77 1009.00 1009.20 1009.40 1009.58 1009.75 1009.92 1010.10 1010.29 1010.48 1010.69
1008.19 1008.13 1008.08 1008.05 1008.02 1008.00 1007.97 1007.93 1007.88 1007.83 1007.77 1007.69 1007.62 1007.55 1007.48 1007.41 1007.35 1007.31 1007.29 1007.30 1007.34 1007.42 1007.53 1007.68 1007.85 1008.05 1008.26 1008.47 1008.68 1008.89 1009.09 1009.30 1009.51 1009.73 1009.95 1010.19 1010.43 1010.67
1007.90 1007.87 1007.85 1007.86 1007.87 1007.88 1007.89 1007.88 1007.86 1007.82 1007.76 1007.69 1007.60 1007.51 1007.41 1007.33 1007.25 1007.18 1007.14 1007.13 1007.15 1007.20 1007.28 1007.39 1007.53 1007.68 1007.85 1008.03 1008.22 1008.42 1008.63 1008.85 1009.09 1009.34 1009.61 1009.89 1010.17 1010.44
1007.53 1007.51 1007.52 1007.55 1007.59 1007.63 1007.65 1007.66 1007.65 1007.61 1007.56 1007.48 1007.39 1007.29 1007.19 1007.10 1007.01 1006.94 1006.89 1006.85 1006.85 1006.87 1006.91 1006.98 1007.07 1007.17 1007.30 1007.44 1007.60 1007.78 1007.99 1008.22 1008.48 1008.77 1009.07 1009.38 1009.69 1009.98
1007.17 1007.16 1007.17 1007.20 1007.23 1007.26 1007.27 1007.27 1007.24 1007.19 1007.12 1007.04 1006.94 1006.84 1006.74 1006.65 1006.56 1006.48 1006.42 1006.38 1006.35 1006.34 1006.35 1006.37 1006.42 1006.49 1006.57 1006.68 1006.82 1006.99 1007.20 1007.44 1007.72 1008.02 1008.35 1008.68 1009.01 1009.31
1006.90 1006.87 1006.85 1006.83 1006.82 1006.80 1006.76 1006.70 1006.63 1006.54 1006.44 1006.33 1006.21 1006.11 1006.01 1005.91 1005.83 1005.76 1005.70 1005.65 1005.61 1005.57 1005.56 1005.55 1005.57 1005.60 1005.66 1005.76 1005.89 1006.06 1006.27 1006.52 1006.81 1007.13 1007.46 1007.81 1008.14 1008.46
1006.71 1006.63 1006.55 1006.46 1006.36 1006.25 1006.12 1005.98 1005.83 1005.67 1005.52 1005.37 1005.23 1005.11 1005.01 1004.92 1004.84 1004.77 1004.71 1004.66 1004.62 1004.58 1004.55 1004.53 1004.53 1004.55 1004.61 1004.69 1004.83 1005.00 1005.22 1005.48 1005.77 1006.09 1006.43 1006.77 1007.11 1007.42
1006.56 1006.41 1006.24 1006.05 1005.84 1005.61 1005.37 1005.13 1004.88 1004.65 1004.43 1004.24 1004.07 1003.94 1003.83 1003.74 1003.67 1003.61 1003.56 1003.51 1003.47 1003.43 1003.40 1003.38 1003.37 1003.40 1003.45 1003.55 1003.68 1003.86 1004.08 1004.33 1004.62 1004.93 1005.26 1005.58 1005.91 1006.21
1006.37 1006.13 1005.86 1005.57 1005.24 1004.90 1004.55 1004.20 1003.87 1003.56 1003.29 1003.06 1002.87 1002.72 1002.61 1002.53 1002.47 1002.42 1002.38 1002.34 1002.30 1002.26 1002.24 1002.22 1002.22 1002.25 1002.30 1002.39 1002.52 1002.69 1002.89 1003.13 1003.39 1003.67 1003.97 1004.27 1004.57 1004.87
1006.05 1005.74 1005.39 1005.00 1004.58 1004.14 1003.71 1003.29 1002.90 1002.54 1002.24 1001.99 1001.80 1001.65 1001.54 1001.47 1001.42 1001.38 1001.35 1001.32 1001.28 1001.25 1001.22 1001.20 1001.19 1001.21 1001.25 1001.32 1001.41 1001.55 1001.71 1001.90 1002.11 1002.34 1002.59 1002.85 1003.13 1003.42
1005.58 1005.22 1004.81 1004.37 1003.90 1003.42 1002.95 1002.50 1002.09 1001.73 1001.43 1001.19 1001.01 1000.89 1000.80 1000.74 1000.71 1000.68 1000.65 1000.62 1000.58 1000.54 1000.49 1000.45 1000.42 1000.40 1000.39 1000.41 1000.45 1000.51 1000.60 1000.71 1000.85 1001.01 1001.20 1001.41 1001.66 1001.95
1004.98 1004.61 1004.19 1003.74 1003.27 1002.81 1002.35 1001.93 1001.56 1001.23 1000.97 1000.77 1000.63 1000.53 1000.47 1000.44 1000.42 1000.40 1000.37 1000.33 1000.28 1000.21 1000.13 1000.05 999.97 999.88 999.80 999.73 999.68 999.64 999.62 999.63 999.67 999.75 999.87 1000.04 1000.26 1000.55
1004.35 1004.00 1003.62 1003.22 1002.80 1002.40 1002.01 1001.66 1001.35 1001.10 1000.90 1000.76 1000.67 1000.61 1000.58 1000.57 1000.55 1000.53 1000.50 1000.44 1000.36 1000.26 1000.14 1000.00 999.84 999.67 999.49 999.30 999.13 998.96 998.82 998.71 998.64 998.63 998.68 998.81 999.02 999.32
1003.81 1003.52 1003.21 1002.88 1002.55 1002.24 1001.95 1001.70 1001.49 1001.32 1001.20 1001.12 1001.07 1001.05 1001.04 1001.04 1001.02 1001.00 1000.94 1000.86 1000.75 1000.60 1000.42 1000.21 999.97 999.70 999.41 999.10 998.79 998.49 998.21 997.97 997.80 997.69 997.69 997.78 997.99 998.32
1003.47 1003.25 1003.02 1002.79 1002.57 1002.36 1002.18 1002.02 1001.90 1001.81 1001.75 1001.72 1001.70 1001.70 1001.70 1001.69 1001.66 1001.62 1001.54 1001.43 1001.28 1001.09 1000.85 1000.57 1000.25 999.88 999.48 999.05 998.61 998.17 997.77 997.42 997.14 996.97 996.91 996.99 997.21 997.57
1003.39 1003.25 1003.10 1002.96 1002.83 1002.72 1002.62 1002.54 1002.48 1002.44 1002.42 1002.41 1002.40 1002.38 1002.37 1002.33 1002.28 1002.21 1002.10 1001.96 1001.77 1001.54 1001.26 1000.92 1000.52 1000.07 999.58 999.04 998.49 997.95 997.44 996.99 996.63 996.40 996.31 996.38 996.63 997.03
Thickness
5766 5765 5763 5763 5763 5762 5760 5755 5746 5739 5740 5748 5752 5755 5755 5752 5748 5745 5742 5739 5737 5735 5733 5732 5730 5728 5727 5725 5724 5722 5721 5720 5720 5720 5719 5718 5717 5717
5762 5760 5759 5759 5758 5757 5756 5754 5750 5742 5738 5744 5747 5750 5750 5749 5744 5743 5740 5737 5735 5733 5732 5730 5729 5727 5725 5723 5722 5721 5720 5719 5718 5718 5717 5717 5715 5714
5758 5757 5755 5754 5752 5751 5750 5749 5746 5743 5736 5739 5743 5745 5744 5742 5740 5739 5737 5735 5733 5731 5730 5729 5727 5726 5724 5722 5720 5719 5718 5717 5716 5715 5715 5714 5713 5712
5753 5752 5750 5750 5747 5746 5744 5743 5741 5741 5736 5731 5734 5736 5737 5738 5736 5735 5735 5734 5732 5730 5729 5727 5726 5724 5722 5721 5719 5718 5716 5715 5714 5713 5711 5711 5710 5709
5749 5747 5746 5744 5741 5740 5739 5737 5737 5737 5734 5730 5730 5732 5733 5733 5731 5730 5731 5730 5730 5728 5727 5725 5723 5722 5720 5719 5717 5716 5714 5713 5712 5710 5708 5707 5706 5705
5746 5744 5742 5740 5737 5735 5734 5732 5731 5729 5728 5726 5725 5725 5726 5727 5724 5722 5721 5723 5724 5725 5724 5722 5720 5719 5717 5716 5715 5713 5712 5710 5709 5707 5705 5704 5703 5702
5740 5739 5738 5736 5733 5731 5730 5727 5725 5722 5721 5719 5717 5717 5717 5717 5715 5716 5714 5716 5718 5720 5718 5718 5716 5714 5713 5712 5711 5710 5709 5707 5705 5703 5701 5700 5699 5698
5733 5733 5732 5730 5728 5726 5725 5723 5720 5716 5714 5712 5711 5709 5709 5711 5711 5709 5707 5706 5706 5713 5711 5712 5714 5712 5712 5711 5710 5708 5706 5704 5702 5699 5697 5696 5694 5693
5727 5726 5726 5726 5723 5721 5719 5717 5715 5713 5710 5708 5705 5705 5705 5705 5703 5701 5700 5699 5699 5704 5704 5703 5708 5707 5709 5709 5707 5705 5702 5700 5698 5696 5694 5692 5690 5689
5722 5721 5718 5717 5716 5713 5712 5710 5709 5709 5707 5704 5703 5703 5702 5701 5699 5697 5696 5695 5697 5699 5699 5694 5699 5700 5704 5702 5702 5700 5697 5695 5693 5692 5690 5688 5686 5684
5716 5715 5713 5710 5707 5705 5703 5701 5701 5701 5702 5701 5699 5698 5696 5695 5693 5690 5688 5685 5685 5689 5693 5689 5690 5692 5693 5694 5694 5693 5691 5690 5688 5686 5684 5682 5680 5678
5709 5708 5706 5703 5700 5697 5695 5693 5691 5692 5693 5694 5693 5691 5690 5689 5687 5684 5681 5677 5677 5679 5685 5683 5682 5682 5681 5686 5686 5684 5683 5682 5680 5679 5677 5675 5674 5671
5701 5700 5699 5696 5693 5690 5688 5687 5686 5685 5685 5686 5686 5685 5685 5684 5683 5680 5678 5675 5671 5671 5677 5676 5673 5673 5672 5673 5675 5676 5676 5674 5672 5671 5669 5668 5666 5664
5693 5693 5691 5688 5686 5684 5682 5682 5680 5678 5678 5678 5677 5677 5677 5676 5676 5676 5674 5672 5670 5669 5669 5668 5665 5664 5662 5662 5664 5666 5667 5667 5666 5664 5663 5661 5659 5658
5686 5684 5682 5680 5679 5678 5677 5675 5673 5671 5670 5668 5668 5669 5670 5670 5670 5668 5667 5666 5665 5665 5664 5662 5660 5658 5656 5654 5655 5656 5656 5658 5658 5657 5656 5654 5652 5651
5677 5676 5675 5673 5672 5671 5671 5669 5667 5666 5664 5662 5662 5662 5663 5662 5660 5659 5657 5656 5654 5654 5655 5655 5653 5651 5648 5649 5647 5647 5648 5648 5649 5649 5648 5647 5646 5646
5668 5668 5667 5666 5665 5665 5664 5663 5661 5659 5656 5655 5654 5652 5652 5651 5650 5650 5648 5646 5644 5643 5644 5645 5646 5645 5644 5641 5638 5638 5638 5639 5640 5640 5638 5637 5638 5638
5659 5659 5659 5658 5656 5656 5654 5653 5653 5651 5649 5647 5645 5643 5642 5641 5640 5640 5638 5636 5635 5634 5634 5634 5633 5632 5632 5633 5632 5630 5629 5629 5629 5628 5627 5625 5626 5628
5651 5651 5650 5649 5647 5646 5645 5644 5643 5642 5641 5639 5636 5634 5633 5631 5630 5628 5627 5626 5625 5625 5624 5624 5622 5619 5617 5617 5622 5621 5619 5619 5619 5618 5617 5616 5614 5614
5644 5643 5641 5640 5638 5636 5635 5633 5632 5631 5629 5627 5625 5624 5622 5620 5619 5618 5616 5615 5614 5614 5613 5613 5612 5610 5608 5608 5609 5609 5609 5608 5608 5607 5607 5605 5603 5602
5636 5633 5632 5630 5628 5626 5623 5622 5620 5618 5617 5614 5612 5611 5610 5609 5607 5607 5606 5605 5603 5603 5602 5601 5602 5602 5602 5601 5598 5597 5596 5596 5596 5596 5596 5594 5592 5591
5626 5624 5622 5619 5617 5615 5612 5610 5608 5606 5603 5600 5599 5598 5597 5596 5595 5594 5595 5594 5593 5593 5593 5592 5592 5592 5590 5588 5587 5585 5585 5584 5584 5584 5584 5585 5584 5583
5616 5614 5612 5609 5606 5603 5601 5598 5596 5592 5589 5587 5585 5585 5584 5583 5583 5584 5584 5584 5584 5583 5583 5582 5581 5580 5579 5578 5576 5575 5574 5573 5572 5572 5571 5572 5574 5575